Погода в Нахчиване

Погода в Нахчиване : погода сейчас, прогноз погоды и архив. Всё, что Вы хотите узнать о погоде в Нахчиване!

Поиск расширенной информации на нашем сайте:

Другие новости

Новости СМИ2

Главная страница сайта

Новости сайта

03.07.2017

Напоминаем, что на нашем специализированном сайте Метеоцентр.Азия вы можете получить высокодетализированные автоматические прогнозы погоды по пунктам России, СНГ и мира в авиационном формате (включающие направление и скорость ветра, видимость, явления погоды, количество и форму облачности, нижнюю и верхнюю границу облачности).


Погода в Нахчиване - сегодня

Время (UTC), дата Ветер
(°,м/с) 
Видим.   Явления Облачность Т
(°С)
Тd
(°С)
f(%) Тe
(°С)
Pmin
(гПа)
dP
(гПа)
Po
(мм)
O2
(г/м3)
Тmin Tmax R s Состояние
почвы
00 18.10.17 тихо ()   н/о    ясно 
+5 +2.3 83 +5  1027.2  1.2  692  273           
03 18.10.17 тихо ()   н/о    ясно 
+2 -0.5 83 +2  1028.8  0.4  692  277           
06 18.10.17 тихо ()   20000 м    ясно 
+10.8 +5.6 70 +11  1026.9  1.5  693  268  +1.9         
09 18.10.17 тихо ()   20000 м    ясно 
+15.8 +8.1 60 +16  1024.1  -0.8  693  262           
12 18.10.17 тихо ()   20000 м    ясно 
+17.8 +8.2 53 +18  1021.2  -1.9  691  260           
15 18.10.17 тихо ()   н/о    ясно 
+15.4 +8.5 63 +16  1021.8  -0.3  691  262           
18 18.10.17 220 (ЮЗ) н/о    ясно 
+7 +3.2 77 +7  1026.5  1.3  692  271    +18.5       
21 18.10.17 250 (З) н/о    ясно 
+6.4 +3.6 82 +6  1027  0.3  692  272           
00 19.10.17 250 (З) н/о    ясно 
+5 +2.8 86 +5  1027.8  0.2  692  273           
03 19.10.17 280 (З) н/о    ясно 
+4.4 +2.2 86 +4  1028.1  692  274           
09 19.10.17 180 (Ю) 20000 м    3/0 средняя 
[Ac trans]
+17.8 +11 64 +23  1021.7  -1.4  692  259           
12 19.10.17 200 (Ю) 20000 м    3/0 средняя 
[Ac trans]
+19.4 +10.7 57 +24  1019  -2.9  690  258           
15 19.10.17 тихо ()   н/о    ясно 
+14.8 +8.9 68 +16  1020.7  690  262           
21 19.10.17 360 (С) н/о    ясно 
+8.2 +4.6 78 +8  1023.6  0.2  693  270           
00 20.10.17 тихо ()   н/о    ясно 
+6.3 +3.7 83 +6  1024.5  693  272           
03 20.10.17 тихо ()   н/о    ясно 
+4.6 +2.6 87 +5  1024.8  -0.3  690  273           
09 20.10.17 тихо ()   20000 м    5/0 верхняя 
[Ci fib]
+16.4 +8.1 58 +17  1019.8  -0.3  690  261           
12 20.10.17 340 (С) 20000 м    5/0 верхняя 
[Ci fib]
+20.4 +16.3 77 +34  1015.9  -2  689  254           
15 20.10.17 тихо ()   н/о    5/0 верхняя 
[Ci fib]
+16.2 +9 62 +18  1017.6  689  260           
21 20.10.17 360 (С) н/о    ясно 
+7.7 +5 83 +8  1021.8  0.6  689  269           
00 21.10.17 360 (С) н/о    ясно 
+6 +3.6 85 +6  1023.7  690  271           
03 21.10.17 360 (С) н/о    ясно 
+4 +1.7 85 +4  1025  0.5  690  274           
06 21.10.17 тихо ()   20000 м    ясно 
+10.4 +6.1 75 +10  1021.5  -0.9  690  267  +3.9         
09 21.10.17 тихо ()   20000 м    ясно 
+17 +8.6 58 +18  1017.9  -1  689  260           
12 21.10.17 тихо ()   20000 м    ясно 
+20.2 +10.6 54 +24  1013.6  -2.8  687  256           
Время (UTC), дата Ветер
(°,м/с) 
Видим.   Явления Облачность Т
(°С)
Тd
(°С)
f(%) Тe
(°С)
Pmin
(гПа)
dP
(гПа)
Po
(мм)
O2
(г/м3)
Тmin Tmax R s Состояние
почвы

Для получения пояснительной информации подведите курсор к названию столбца.

ПОГОДА в Нахчиване - архив

Всё, что Вы хотите узнать о погоде в Нахчиване - удобно и подробно!

Выберите нужную дату (начиная с 1 января 2015* года) и нажмите кнопку "Найти".
Будут отображены архивные сводки погоды по пункту Нахчиван, начиная с указанной даты.


Отображать данные в формате CSV (для использования в таблицах Excel)


Внимание! Наш архив погоды предназначен исключительно для личного некоммерческого использования в познавательных целях. Если Вам необходимы официальные справки о состоянии погоды (для производственных, юридических, коммерческих и т.п. целей), обращайтесь в органы Росгидромета.

*Примечание: данная дата относится к архиву по метеостанциям СССР (Россия, СНГ, Балтия).
Архив по метеостанциям Зарубежной Европы и Азии (кроме Китая) хранится 10 дней, по другим регионам земного шара (Китай, Африка, Америка, Австралия, Океания) - 1 день.

Нахчиван - район местоположения метеостанции


Название, широта, долгота, высота метеостанции:
Нахчиван 39.2°ш. 45.4°д. 873 м над ур. моря [Азербайджан]

Дополнительная информация

В oтличие oт бoльшинства пoгoдных сайтoв мы публикуем пoдрoбную метеoинфoрмацию в детальнoм прoфессиoнальнoм фoрмате.

Характеристики температуры и влажнoсти вoздуха измеряются на высoте 2 м в тени вдали oт зданий и деревьев.
Скoрoсть ветра измеряется на высoте 10 м (на урoвне рoста челoвека скoрoсть ветра ниже в 1.5-2 раза). Если метеoстанция нахoдится в гoрoде или в лесу, тo скoрoсть ветра занижена на 2-4 м/с пo сравнению с oткрытым местoм. Скoрoсть ветра над акватoриями крупных рек и oзёр, а также на вершинах хoлмoв на 2-5 м/с выше, чем в oбычных услoвиях.
Атмoсфернoе давление в разных тoчках местнoсти мoжет значительнo oтличаться oт давления на метеoстанции, в зависимoсти oт услoвий рельефа (при пoдъёме на 10 м давление пoнижается примернo на 1 мм рт.ст.).